NOAA 16 DEB, 41425

Orbit data source: Space-Track

NOAA 16 DEB, 41425 is space debris in SSO originally from a launch on Thu, 21 Sep 2000 UTC launched from the Air Force Western Test Range (AFWTR). Debris objects in space refer to the collection of defunct objects orbiting the Earth. Examples of debris include non-operational satellites, rocket bodies, and fragments generated from explosions, collisions, or faulty payload assembly.

Loading next visibility...
Identifier
41425, 2000-055LE
Orbit
SSO
Country
Flag of USUS
Related business
Manufacturer
Unknown
Mission
Spacecraft
Bus & Motor
Unknown
Mass
Unknown
Launch date (UTC)
2000-09-21 (25 years ago)
Launch vehicle
Unknown
Launch site
Air Force Western Test Range (AFWTR)
Object type
Payload
Rocket body
Debris
Shape & HBR
Unknown shape, 0.1 m
Radar Cross Section
Small (<0.1 m²)

Expand to show TLE details & history
Last TLE update: 22 hours ago

TLE from 22 hours ago
0 NOAA 16 DEB
1 41425U 00055LE  25293.44938380  .00018010  00000-0  40620-2 0  9990
2 41425  98.9778 162.2357 0040460  32.2886 328.0774 14.55866009506618
Epoch: 2025-10-20T10:47Z
TLE epoch observation values (Epoch: 2025-10-20T10:47:06.760Z)
Latitude
-0.00001°
Longitude
-28.694°
Altitude
685.207 km
Speed
7.527 km/s
True Right ascension
10h 48m 56s
True Declination
0° 00' 00"
Sunlit
Object was in daylight at epoch
Visualization orbit readout
Latitude
Unknown
Longitude
Unknown
Altitude
Unknown
Speed
Unknown
Apparent Right ascension
Unknown
Apparent Declination
Unknown
Sunlit
N/A
Visualization observer readout
Local Sidereal Time
03:35:36
Azimuth
Unknown
Elevation
Unknown
Doppler factor
Unknown
Orbital elements
Apogee altitude
732.331 km
Perigee altitude
675.025 km
Semi-major axis
7,081.815 km
Eccentricity
0.00405
Inclination
98.9778°
RAAN
162.2357°
Arg. of periapsis
32.2886°
True anomaly
327.83118°
Mean anomaly
328.0774°
Eccentric anomaly
327.9544°
Mean motion
3.64189 °/min
Orbital period
98.85 mins
BSTAR
0.004062
Loading maneuver chart data...
Computing Atmospheric mass density...
Loading historical data...
Loading historical data...
Loading historical data...
Loading historical data...
Loading historical data...
Loading historical data...
Loading historical data...

Documentation

Showing up to 5 results
|